Location: Meriden
(44.0740°N, 93.3870°W)
Time: 21:04:30
(UTC-05:00)

Amateur Radio Satellites - All Passes

Search period start: 29 July 2015 20:34
Search period end: 30 July 2015 20:34
Location: Meriden, 44.0740°N, 93.3870°W

Satellite Date Start Highest point End Downlink Frequencies (MHz)
Time Altitude Azimuth
AAUSAT CUBESAT 2 29 Jul 20:35:09 20:38:35 25° 68° (ENE) 20:42:06 437.432
STRAND 1 29 Jul 20:48:53 20:53:57 64° 288° (WNW) 20:58:59 437.568
ZACube-1 29 Jul 20:50:47 20:51:59 11° 61° (ENE) 20:53:24 437.345
VERMONT LUNAR 29 Jul 20:54:44 20:57:34 30° 165° (SSE) 21:00:25 437.305
UWE-3 29 Jul 21:06:14 21:09:18 21° 66° (ENE) 21:12:32 435.000/436.395/437.385
BRITE-PL 29 Jul 21:06:30 21:10:13 25° 266° (W) 21:13:43 437.365/2234.400
FUNcube-1 29 Jul 21:11:58 21:14:47 18° 65° (ENE) 21:17:44 145.935
CUBEBUG 2 29 Jul 21:15:12 21:18:52 31° 69° (ENE) 21:22:40 437.445
COMPASS 1 29 Jul 21:25:49 21:30:01 78° 258° (WSW) 21:34:17 437.405
Cosmos 2499 29 Jul 21:28:05 21:35:10 28° 277° (W) 21:42:06 435.465 / 435.565
Oscar 11 29 Jul 21:28:17 21:32:22 43° 72° (ENE) 21:36:32 145.826/435.025
GOMX 1 29 Jul 21:31:51 21:35:14 22° 267° (W) 21:38:28 467.674
DOVE 4 29 Jul 21:33:11 21:37:00 33° 264° (W) 21:40:46 437.250
CUTE 1.7 + AOD 2 29 Jul 21:34:54 21:38:55 40° 263° (W) 21:42:58 437.475
SEEDS 29 Jul 21:36:25 21:40:31 47° 262° (W) 21:44:39 437.485
M-CUBED/EXP-1 PRIME 29 Jul 21:38:01 21:39:46 12° 91° (E) 21:41:46 437.505
CANX-2 29 Jul 21:43:11 21:46:58 30° 265° (W) 21:50:44 2200.000
HO-68 29 Jul 21:45:34 21:52:18 43° 262° (W) 21:59:02 435.675
RS-15 29 Jul 21:46:06 21:55:52 42° 110° (ESE) 22:06:09 29.354- 29.394
DX 1 29 Jul 21:54:30 21:57:21 18° 64° (ENE) 22:00:20 434.975-435.025
Cosmos 2491 29 Jul 21:57:47 22:00:34 12° 49° (NE) 22:03:58 435.465 / 435.565
HUMSAT D 29 Jul 21:58:01 22:01:17 24° 67° (ENE) 22:04:40 437.325/437.525
VELOX 1 29 Jul 21:59:47 22:01:26 12° 61° (ENE) 22:03:17 145.980
PHONESAT 2.4 29 Jul 22:01:10 22:03:55 22° 158° (SSE) 22:06:43 2401.200-2431.200
CINEMA 3 29 Jul 22:02:34 22:06:25 36° 264° (W) 22:10:18 145.822/145.860
AUBIESAT-1 29 Jul 22:08:41 22:12:16 21° 96° (E) 22:15:53 437.475
AAUSAT CUBESAT 2 29 Jul 22:10:23 22:14:06 30° 265° (W) 22:17:48 437.432
ISS 29 Jul 22:10:30 22:13:06 23° 137° (SE) 22:15:45 145.825
DELFI C3 29 Jul 22:15:05 22:19:08 84° 257° (WSW) 22:23:15 145.870
ZACube-1 29 Jul 22:23:35 22:27:45 78° 259° (W) 22:32:03 437.345
50 SAT 29 Jul 22:27:34 22:30:35 22° 68° (ENE) 22:33:42 437.505
VERMONT LUNAR 29 Jul 22:30:58 22:34:01 43° 182° (S) 22:37:03 437.305
UWE-3 29 Jul 22:41:43 22:45:37 37° 263° (W) 22:49:36 435.000/436.395/437.385
FUNcube-1 29 Jul 22:46:48 22:50:47 44° 262° (W) 22:54:53 145.935
CUBEBUG 2 29 Jul 22:52:14 22:55:39 23° 267° (W) 22:59:03 437.445
AISAT 29 Jul 22:53:26 22:57:34 41° 71° (ENE) 23:01:45 437.250
UKube-1 29 Jul 23:04:57 23:09:17 84° 76° (ENE) 23:13:38 .
Oscar 11 29 Jul 23:05:44 23:08:49 18° 269° (W) 23:11:47 145.826/435.025
M-CUBED/EXP-1 PRIME 29 Jul 23:10:21 23:15:12 85° 288° (WNW) 23:19:58 437.505
UNISAT 6 29 Jul 23:12:21 23:16:29 31° 95° (E) 23:20:41 437.425
CUBEBUG 1 29 Jul 23:16:10 23:20:14 40° 71° (ENE) 23:24:19 437.445
DX 1 29 Jul 23:29:03 23:33:16 49° 260° (W) 23:37:30 434.975-435.025
VELOX 1 29 Jul 23:33:00 23:37:26 79° 256° (WSW) 23:41:52 145.980
HUMSAT D 29 Jul 23:33:11 23:36:54 31° 264° (W) 23:40:39 437.325/437.525
ESTCUBE 1 29 Jul 23:33:53 23:38:25 74° 75° (ENE) 23:42:58 437.505/2401.250
PHONESAT 2.4 29 Jul 23:38:08 23:41:30 44° 174° (S) 23:44:51 2401.200-2431.200
POLYITAN 1 29 Jul 23:39:22 23:42:41 22° 93° (E) 23:46:06 437.675
AUBIESAT-1 29 Jul 23:42:35 23:47:11 48° 294° (WNW) 23:51:41 437.475
AIST 1 29 Jul 23:45:07 23:49:17 50° 78° (ENE) 23:53:25
ISS 29 Jul 23:46:09 23:49:21 53° 334° (NNW) 23:52:34 145.825
BEESAT 3 29 Jul 23:50:37 23:52:59 15° 112° (ESE) 23:55:29 437.485
Cosmos 2491 29 Jul 23:51:28 00:00:01 57° 75° (ENE) 00:08:34 435.465 / 435.565
TIGRISAT 29 Jul 23:56:29 00:01:10 83° 103° (ESE) 00:05:53 435.000
RS-15 29 Jul 23:57:01 00:07:53 63° 314° (NW) 00:19:11 29.354- 29.394
ANTELSAT 29 Jul 23:57:05 00:01:48 87° 103° (ESE) 00:06:32 437.575/2403.000
POPSAT HIP 1 29 Jul 23:57:11 00:01:02 33° 96° (E) 00:04:55 437.405
50 SAT 30 Jul 00:01:37 00:05:03 29° 265° (W) 00:08:29 437.505
SPROUT 30 Jul 00:02:34 00:06:29 37° 70° (ENE) 00:10:27 437.525
QB50P2 30 Jul 00:04:01 00:08:04 41° 98° (E) 00:12:07 145.880/145.840
VERMONT LUNAR 30 Jul 00:07:45 00:10:25 24° 198° (SSW) 00:13:03 437.305
BUGSAT 1 30 Jul 00:15:31 00:19:09 31° 96° (E) 00:22:51 437.445
YUBILEINY 30 Jul 00:16:35 00:23:56 33° 85° (E) 00:31:31 435.215
TISAT 1 30 Jul 00:24:52 00:28:46 40° 71° (ENE) 00:32:42 437.305
ITUPSAT 1 30 Jul 00:30:54 00:31:44 11° 58° (ENE) 00:32:51 437.325
AISAT 30 Jul 00:31:05 00:34:21 20° 268° (W) 00:37:32 437.250
DUCHIFAT 1 30 Jul 00:31:31 00:35:46 77° 102° (ESE) 00:40:01 145.980
QB50P1 30 Jul 00:32:43 00:37:00 83° 102° (ESE) 00:41:16 145.935-145.965
NANOSAT C BR1 30 Jul 00:35:03 00:39:19 86° 102° (ESE) 00:43:35 145.865
BEESAT 2 30 Jul 00:42:58 00:46:49 41° 118° (ESE) 00:50:44 435.950
M-CUBED/EXP-1 PRIME 30 Jul 00:46:59 00:49:17 13° 306° (NW) 00:51:23 437.505
UNISAT 6 30 Jul 00:49:07 00:53:13 30° 292° (WNW) 00:57:16 437.425
CUBEBUG 1 30 Jul 00:53:28 00:56:46 20° 268° (W) 00:59:58 437.445
ESTCUBE 1 30 Jul 01:14:09 01:15:54 12° 273° (W) 01:17:23 437.505/2401.250
POLYITAN 1 30 Jul 01:14:47 01:18:42 35° 290° (WNW) 01:22:34 437.675
PHONESAT 2.4 30 Jul 01:15:54 01:19:11 38° 191° (S) 01:22:28 2401.200-2431.200
ISS 30 Jul 01:23:39 01:26:17 22° 353° (N) 01:28:56 145.825
AIST 1 30 Jul 01:24:10 01:26:32 14° 274° (W) 01:28:43
BEESAT 30 Jul 01:24:51 01:29:06 33° 68° (ENE) 01:33:26 436.000
BEESAT 3 30 Jul 01:26:30 01:30:31 56° 308° (NW) 01:34:34 437.485
POPSAT HIP 1 30 Jul 01:33:19 01:36:46 24° 293° (WNW) 01:40:08 437.405
TIGRISAT 30 Jul 01:35:11 01:37:20 13° 299° (WNW) 01:39:17 435.000
ANTELSAT 30 Jul 01:36:00 01:37:58 12° 299° (WNW) 01:39:44 437.575/2403.000
SPROUT 30 Jul 01:39:26 01:42:43 21° 268° (W) 01:45:55 437.525
QB50P2 30 Jul 01:40:33 01:43:42 20° 294° (WNW) 01:46:45 145.880/145.840
SWISSCUBE 30 Jul 01:44:31 01:49:11 55° 72° (ENE) 01:53:55 437.505
Cosmos 2491 30 Jul 01:48:58 01:56:32 33° 275° (W) 02:03:53 435.465 / 435.565
BUGSAT 1 30 Jul 01:51:17 01:54:30 23° 293° (WNW) 01:57:39 437.445
AIST 2 30 Jul 01:58:13 02:02:23 58° 121° (ESE) 02:06:36 435.215
TISAT 1 30 Jul 02:01:44 02:04:45 18° 268° (W) 02:07:37 437.305
ITUPSAT 1 30 Jul 02:04:05 02:08:53 77° 75° (ENE) 02:13:45 437.325
DUCHIFAT 1 30 Jul 02:09:30 02:11:02 12° 298° (WNW) 02:12:22 145.980
QB50P1 30 Jul 02:11:05 02:12:17 11° 299° (WNW) 02:13:15 145.935-145.965
YUBILEINY 30 Jul 02:11:50 02:20:24 57° 285° (WNW) 02:29:00 435.215
NANOSAT C BR1 30 Jul 02:13:43 02:14:33 10° 299° (WNW) 02:15:10 145.865
RS-15 30 Jul 02:13:48 02:23:12 29° 344° (NNW) 02:32:52 29.354- 29.394
O/OREOS (USA 219) 30 Jul 02:14:57 02:19:04 38° 107° (ESE) 02:23:16 437.305
BEESAT 2 30 Jul 02:21:35 02:25:02 24° 317° (NW) 02:28:26 435.950
Cosmos 2504 30 Jul 02:25:00 02:30:11 23° 81° (E) 02:35:52 435.465 / 435.565
Oscar 19 30 Jul 02:33:59 02:39:06 57° 100° (E) 02:44:13 437.125/150
STARS 30 Jul 02:38:10 02:41:12 19° 65° (ENE) 02:44:23 437.465
PHONESAT 2.4 30 Jul 02:54:28 02:56:39 16° 207° (SSW) 02:58:47 2401.200-2431.200
KKS-1 30 Jul 02:57:21 03:01:35 47° 71° (ENE) 03:05:52 437.445
ISS 30 Jul 03:00:36 03:03:25 26° 13° (NNE) 03:06:15 145.825
BEESAT 30 Jul 03:02:47 03:06:59 29° 265° (W) 03:11:08 436.000
BEESAT 3 30 Jul 03:08:22 03:09:23 11° 329° (NNW) 03:10:17 437.485
Gurwin Techsat 1B 30 Jul 03:13:05 03:18:05 41° 97° (E) 03:23:06 435.225
JAS-2 30 Jul 03:20:06 03:26:22 27° 89° (E) 03:32:50 435.910
AO-7 30 Jul 03:22:29 03:23:56 11° 81° (E) 03:26:09 29.400- 29.500
SWISSCUBE 30 Jul 03:24:11 03:27:27 17° 270° (W) 03:30:33 437.505
MOZHAYETS 4 30 Jul 03:31:58 03:34:33 15° 63° (ENE) 03:37:19
AIST 2 30 Jul 03:38:03 03:41:18 20° 320° (NW) 03:44:31 435.215
ITUPSAT 1 30 Jul 03:45:20 03:47:27 12° 273° (W) 03:49:19 437.325
ITAMSAT 1 30 Jul 03:49:31 03:54:43 76° 102° (ESE) 03:59:54 435.822/435.867
O/OREOS (USA 219) 30 Jul 03:54:56 03:58:39 24° 306° (NW) 04:02:20 437.305
HORYU 2 30 Jul 03:54:57 03:56:24 12° 87° (E) 03:58:07 437.375
STARS 30 Jul 04:13:11 04:17:22 44° 261° (W) 04:21:35 437.465
Oscar 19 30 Jul 04:14:16 04:18:05 21° 297° (WNW) 04:21:46 437.125/150
Cosmos 2504 30 Jul 04:14:37 04:21:40 67° 282° (WNW) 04:29:15 435.465 / 435.565
YUBILEINY 30 Jul 04:16:18 04:19:48 12° 311° (NW) 04:22:44 435.215
RS-15 30 Jul 04:30:36 04:40:17 30° 18° (NNE) 04:50:28 29.354- 29.394
KKS-1 30 Jul 04:35:30 04:38:32 17° 269° (W) 04:41:26 437.445
ISS 30 Jul 04:36:53 04:40:10 85° 213° (SSW) 04:43:26 145.825
CUSAT 1 30 Jul 04:53:17 04:56:03 34° 98° (E) 04:58:33 437.405
Gurwin Techsat 1B 30 Jul 04:53:23 04:57:56 29° 295° (WNW) 05:02:22 435.225
GONETS M04 30 Jul 05:02:24 05:05:42 13° 75° (ENE) 05:09:38
JAS-2 30 Jul 05:04:16 05:12:01 72° 288° (WNW) 05:19:47 435.910
MOZHAYETS 4 30 Jul 05:06:41 05:11:18 66° 259° (W) 05:15:57
AO-7 30 Jul 05:10:31 05:18:46 62° 103° (ESE) 05:26:59 29.400- 29.500
CUBESAT XI-V 30 Jul 05:18:55 05:21:52 17° 64° (ENE) 05:24:56 437.345
HORYU 2 30 Jul 05:29:07 05:33:39 74° 286° (WNW) 05:38:08 437.375
ITAMSAT 1 30 Jul 05:30:29 05:33:40 16° 300° (WNW) 05:36:40 435.822/435.867
DANDE 30 Jul 05:58:23 06:01:36 39° 282° (WNW) 06:04:18 436.750
Cosmos 2504 30 Jul 06:12:33 06:15:52 13° 307° (NW) 06:18:49 435.465 / 435.565
ISS 30 Jul 06:14:54 06:16:10 12° 228° (SW) 06:17:19 145.825
STRAND 1 30 Jul 06:27:59 06:32:20 29° 66° (ENE) 06:36:45 437.568
CUTE-I 30 Jul 06:39:32 06:43:36 23° 92° (E) 06:47:47 437.470
RS-15 30 Jul 06:43:54 06:55:32 66° 48° (NE) 07:07:40 29.354- 29.394
JAS-2 30 Jul 06:51:02 06:55:56 18° 306° (NW) 07:00:34 435.910
GONETS M04 30 Jul 06:52:29 07:01:05 70° 94° (E) 07:09:44
CUBESAT XI-V 30 Jul 06:54:15 06:58:53 59° 260° (W) 07:03:32 437.345
AO-7 30 Jul 07:03:52 07:11:12 35° 303° (WNW) 07:18:22 29.400- 29.500
Cubesat XI-IV 30 Jul 07:22:06 07:27:20 54° 100° (E) 07:32:32 437.490
PRISM 30 Jul 07:23:34 07:27:45 77° 74° (ENE) 07:31:57 437.425
BEESAT 3 30 Jul 08:06:26 08:09:21 19° 40° (NE) 08:12:19 437.485
STRAND 1 30 Jul 08:06:37 08:11:25 38° 263° (W) 08:16:13 437.568
Cosmos 2499 30 Jul 08:12:33 08:19:34 52° 90° (E) 08:27:13 435.465 / 435.565
CUTE-I 30 Jul 08:18:51 08:24:01 50° 290° (WNW) 08:29:07 437.470
M-CUBED/EXP-1 PRIME 30 Jul 08:26:40 08:29:24 18° 57° (ENE) 08:32:24 437.505
AIST 2 30 Jul 08:41:51 08:43:15 11° 31° (NNE) 08:44:46 435.215
GONETS M04 30 Jul 08:51:30 08:58:49 28° 296° (WNW) 09:05:55
PCSat 30 Jul 08:56:46 08:59:26 14° 105° (ESE) 09:02:23 145.827
RS-15 30 Jul 08:56:51 09:07:40 42° 250° (WSW) 09:18:34 29.354- 29.394
AUBIESAT-1 30 Jul 08:57:16 09:00:48 30° 62° (ENE) 09:04:39 437.475
BEESAT 2 30 Jul 09:00:31 09:04:25 41° 49° (NE) 09:08:17 435.950
Cubesat XI-IV 30 Jul 09:02:58 09:07:06 23° 297° (WNW) 09:11:06 437.490
BRITE-PL 30 Jul 09:07:52 09:12:11 83° 101° (ESE) 09:16:47 437.365/2234.400
COMPASS 1 30 Jul 09:08:57 09:11:25 15° 89° (E) 09:14:03 437.405
HO-68 30 Jul 09:11:13 09:17:39 36° 95° (E) 09:24:10 435.675
CUTE 1.7 + AOD 2 30 Jul 09:18:34 09:22:22 30° 95° (E) 09:26:12 437.475
SEEDS 30 Jul 09:19:30 09:23:03 25° 94° (E) 09:26:37 437.485
ANTELSAT 30 Jul 09:24:53 09:25:42 11° 60° (ENE) 09:26:44 437.575/2403.000
CANX-2 30 Jul 09:26:24 09:30:30 41° 97° (E) 09:34:35 2200.000
DOVE 4 30 Jul 09:29:15 09:33:40 51° 99° (E) 09:38:22 437.250
GOMX 1 30 Jul 09:29:57 09:34:25 84° 105° (ESE) 09:39:09 467.674
BEESAT 3 30 Jul 09:43:39 09:47:39 57° 239° (WSW) 09:51:33 437.485
AAUSAT CUBESAT 2 30 Jul 09:51:17 09:55:13 37° 97° (E) 09:59:07 437.432
DELFI C3 30 Jul 09:54:38 09:56:03 12° 88° (E) 09:57:41 145.870
CINEMA 3 30 Jul 09:54:48 09:59:13 44° 98° (E) 10:03:50 145.822/145.860
M-CUBED/EXP-1 PRIME 30 Jul 09:59:55 10:03:47 50° 256° (WSW) 10:08:01 437.505
Cosmos 2499 30 Jul 10:06:31 10:13:09 33° 293° (WNW) 10:20:08 435.465 / 435.565
ZACube-1 30 Jul 10:11:14 10:14:25 19° 91° (E) 10:17:46 437.345
UNISAT 6 30 Jul 10:12:59 10:16:47 31° 69° (ENE) 10:20:44 437.425
AIST 2 30 Jul 10:18:35 10:22:45 60° 53° (NE) 10:26:51 435.215
YUBILEINY 30 Jul 10:24:35 10:30:02 18° 56° (NE) 10:35:55 435.215
SO-50 30 Jul 10:28:29 10:33:10 59° 120° (ESE) 10:38:00 436.795
UWE-3 30 Jul 10:29:26 10:33:41 37° 97° (E) 10:38:01 435.000/436.395/437.385
AUBIESAT-1 30 Jul 10:32:05 10:35:32 27° 262° (W) 10:39:10 437.475
FUNcube-1 30 Jul 10:33:20 10:37:21 31° 95° (E) 10:41:25 145.935
POLYITAN 1 30 Jul 10:34:07 10:37:14 21° 66° (ENE) 10:40:28 437.675
PCSat 30 Jul 10:36:47 10:42:13 84° 300° (WNW) 10:47:42 145.827
BEESAT 2 30 Jul 10:39:08 10:42:14 21° 247° (WSW) 10:45:13 435.950
CUBEBUG 2 30 Jul 10:40:12 10:44:47 61° 101° (E) 10:49:27 437.445
COMPASS 1 30 Jul 10:43:19 10:47:25 49° 288° (WNW) 10:51:30 437.405
O/OREOS (USA 219) 30 Jul 10:45:15 10:47:29 14° 47° (NE) 10:49:54 437.305
BRITE-PL 30 Jul 10:49:01 10:50:16 11° 297° (WNW) 10:51:18 437.365/2234.400
Oscar 11 30 Jul 10:49:51 10:54:14 74° 102° (ESE) 10:58:35 145.826/435.025
POPSAT HIP 1 30 Jul 10:51:28 10:55:07 30° 69° (ENE) 10:58:50 437.405
UKube-1 30 Jul 10:52:50 10:54:34 12° 88° (E) 10:56:30 .
CUTE 1.7 + AOD 2 30 Jul 10:54:35 10:58:12 26° 292° (WNW) 11:01:43 437.475
SEEDS 30 Jul 10:55:04 10:58:51 30° 291° (WNW) 11:02:33 437.485
TIGRISAT 30 Jul 10:56:38 11:00:57 85° 76° (ENE) 11:05:24 435.000
ANTELSAT 30 Jul 10:57:27 11:01:48 90° 205° (SSW) 11:06:17 437.575/2403.000
QB50P2 30 Jul 10:58:20 11:02:11 37° 71° (ENE) 11:06:06 145.880/145.840
HO-68 30 Jul 10:58:44 11:05:36 49° 294° (WNW) 11:12:24 435.675
CANX-2 30 Jul 11:02:59 11:06:10 20° 294° (WNW) 11:09:15 2200.000
Cosmos 2491 30 Jul 11:05:23 11:07:22 11° 73° (ENE) 11:10:04 435.465 / 435.565
BUGSAT 1 30 Jul 11:07:10 11:10:35 27° 69° (ENE) 11:14:04 437.445
DOVE 4 30 Jul 11:07:59 11:11:10 19° 294° (WNW) 11:14:19 437.250
GOMX 1 30 Jul 11:10:29 11:12:05 12° 297° (WNW) 11:13:29 467.674
HUMSAT D 30 Jul 11:15:07 11:19:06 36° 96° (E) 11:23:07 437.325/437.525
DX 1 30 Jul 11:16:11 11:19:44 24° 94° (E) 11:23:18 434.975-435.025
VELOX 1 30 Jul 11:22:58 11:25:51 17° 91° (E) 11:28:53 145.980
DUCHIFAT 1 30 Jul 11:25:01 11:29:10 68° 75° (ENE) 11:33:20 145.980
QB50P1 30 Jul 11:26:36 11:30:47 74° 75° (ENE) 11:35:00 145.935-145.965
ESTCUBE 1 30 Jul 11:26:43 11:28:57 14° 88° (E) 11:31:23 437.505/2401.250
AAUSAT CUBESAT 2 30 Jul 11:27:23 11:30:36 21° 293° (WNW) 11:33:42 437.432
DELFI C3 30 Jul 11:27:34 11:31:36 60° 286° (WNW) 11:35:34 145.870
NANOSAT C BR1 30 Jul 11:28:43 11:32:53 77° 75° (ENE) 11:37:06 145.865
CINEMA 3 30 Jul 11:32:37 11:36:12 22° 293° (WNW) 11:39:48 145.822/145.860
50 SAT 30 Jul 11:35:15 11:38:38 27° 95° (E) 11:42:03 437.505
ZACube-1 30 Jul 11:46:40 11:51:01 46° 288° (WNW) 11:55:23 437.345
UNISAT 6 30 Jul 11:49:56 11:53:37 26° 266° (W) 11:57:18 437.425
AIST 2 30 Jul 11:58:27 12:00:53 15° 249° (WSW) 12:03:09 435.215
UWE-3 30 Jul 12:06:19 12:10:03 25° 293° (WNW) 12:13:45 435.000/436.395/437.385
POLYITAN 1 30 Jul 12:09:02 12:12:57 37° 263° (W) 12:16:52 437.675
FUNcube-1 30 Jul 12:09:42 12:13:36 28° 292° (WNW) 12:17:28 145.935
SO-50 30 Jul 12:10:06 12:14:06 25° 321° (NW) 12:18:07 436.795
Oscar 19 30 Jul 12:16:15 12:18:43 14° 59° (ENE) 12:21:25 437.125/150
AIST 1 30 Jul 12:16:20 12:20:01 28° 90° (E) 12:23:46
CUBEBUG 2 30 Jul 12:18:07 12:21:03 16° 296° (WNW) 12:23:51 437.445
AISAT 30 Jul 12:18:36 12:23:01 70° 102° (ESE) 12:27:25 437.250
YUBILEINY 30 Jul 12:19:48 12:28:40 79° 80° (E) 12:37:32 435.215
PCSat 30 Jul 12:22:48 12:26:31 18° 323° (NW) 12:30:08 145.827
O/OREOS (USA 219) 30 Jul 12:23:01 12:27:37 85° 251° (WSW) 12:32:13 437.305
UKube-1 30 Jul 12:26:54 12:31:12 64° 287° (WNW) 12:35:28 .
POPSAT HIP 1 30 Jul 12:27:33 12:31:01 24° 266° (W) 12:34:27 437.405
Oscar 11 30 Jul 12:27:54 12:29:52 13° 298° (WNW) 12:31:40 145.826/435.025
QB50P2 30 Jul 12:35:03 12:38:15 20° 268° (W) 12:41:20 145.880/145.840
CUBEBUG 1 30 Jul 12:39:19 12:43:38 66° 101° (ESE) 12:47:56 437.445
BUGSAT 1 30 Jul 12:42:38 12:46:03 25° 265° (W) 12:49:24 437.445
HO-68 30 Jul 12:50:06 12:51:48 11° 314° (NW) 12:53:07 435.675
HUMSAT D 30 Jul 12:51:13 12:54:40 23° 293° (WNW) 12:58:01 437.325/437.525
DX 1 30 Jul 12:52:07 12:56:01 33° 291° (WNW) 12:59:53 434.975-435.025
Cosmos 2491 30 Jul 12:54:02 13:02:37 62° 92° (E) 13:11:13 435.465 / 435.565
VELOX 1 30 Jul 12:58:28 13:02:43 47° 288° (WNW) 13:06:55 145.980
Gurwin Techsat 1B 30 Jul 13:00:04 13:01:39 12° 57° (ENE) 13:03:31 435.225
ESTCUBE 1 30 Jul 13:01:51 13:06:19 61° 286° (WNW) 13:10:44 437.505/2401.250
DUCHIFAT 1 30 Jul 13:04:15 13:05:31 11° 273° (W) 13:06:33 145.980
QB50P1 30 Jul 13:06:51 13:07:16 10° 273° (W) 13:07:25 145.935-145.965
50 SAT 30 Jul 13:09:48 13:13:09 25° 291° (WNW) 13:16:25 437.505
SPROUT 30 Jul 13:23:11 13:27:26 60° 100° (E) 13:31:41 437.525
ITAMSAT 1 30 Jul 13:31:34 13:35:08 20° 62° (ENE) 13:38:52 435.822/435.867
JAS-2 30 Jul 13:37:24 13:39:57 13° 50° (NE) 13:42:56 435.910
TISAT 1 30 Jul 13:43:01 13:47:12 60° 100° (E) 13:51:22 437.305
SWISSCUBE 30 Jul 13:45:20 13:47:13 12° 87° (E) 13:49:22 437.505
Oscar 19 30 Jul 13:52:19 13:57:26 86° 256° (WSW) 14:02:37 437.125/150
AIST 1 30 Jul 13:53:56 13:57:39 26° 288° (WNW) 14:01:19
AISAT 30 Jul 13:56:50 13:59:05 14° 298° (WNW) 14:01:10 437.250
Cosmos 2504 30 Jul 13:58:04 14:05:57 46° 73° (ENE) 14:14:11 435.465 / 435.565
ITUPSAT 1 30 Jul 14:04:19 14:07:28 18° 90° (E) 14:10:45 437.325
CUBEBUG 1 30 Jul 14:17:17 14:19:31 14° 298° (WNW) 14:21:36 437.445
YUBILEINY 30 Jul 14:18:00 14:24:39 23° 279° (W) 14:30:56 435.215
AO-7 30 Jul 14:21:10 14:27:15 24° 51° (NE) 14:33:35 29.400- 29.500
Gurwin Techsat 1B 30 Jul 14:35:32 14:40:49 74° 75° (ENE) 14:46:10 435.225
Cosmos 2491 30 Jul 14:52:28 15:00:09 32° 294° (WNW) 15:07:38 435.465 / 435.565
HORYU 2 30 Jul 14:54:33 14:56:52 14° 62° (ENE) 14:59:20 437.375
SPROUT 30 Jul 15:00:39 15:03:05 15° 297° (WNW) 15:05:23 437.525
BEESAT 30 Jul 15:00:39 15:05:25 64° 102° (ESE) 15:10:09 436.000
ITAMSAT 1 30 Jul 15:09:02 15:14:13 62° 258° (WSW) 15:19:25 435.822/435.867
JAS-2 30 Jul 15:17:40 15:23:37 63° 71° (ENE) 15:30:26 435.910
TISAT 1 30 Jul 15:20:14 15:22:32 14° 297° (WNW) 15:24:40 437.305
SWISSCUBE 30 Jul 15:20:56 15:25:44 75° 286° (WNW) 15:30:29 437.505
CUSAT 1 30 Jul 15:24:28 15:28:02 35° 77° (ENE) 15:32:41 437.405
Oscar 19 30 Jul 15:36:32 15:37:42 10° 275° (W) 15:38:30 437.125/150
ITUPSAT 1 30 Jul 15:41:04 15:45:45 54° 288° (WNW) 15:50:23 437.325
Cosmos 2504 30 Jul 15:50:25 15:58:10 43° 272° (W) 16:06:02 435.465 / 435.565
STARS 30 Jul 16:01:23 16:05:13 29° 95° (E) 16:09:06 437.465
AO-7 30 Jul 16:10:43 16:19:07 89° 72° (ENE) 16:27:33 29.400- 29.500
Gurwin Techsat 1B 30 Jul 16:18:21 16:21:29 15° 272° (W) 16:24:22 435.225
KKS-1 30 Jul 16:23:08 16:27:36 80° 101° (E) 16:32:05 437.445
HORYU 2 30 Jul 16:28:35 16:33:00 67° 259° (WSW) 16:37:28 437.375
DANDE 30 Jul 16:33:23 16:36:51 65° 261° (W) 16:41:28 436.750
BEESAT 30 Jul 16:39:45 16:42:48 17° 298° (WNW) 16:45:41 436.000
MOZHAYETS 4 30 Jul 17:00:46 17:04:38 26° 93° (E) 17:08:33
GONETS M04 30 Jul 17:01:02 17:08:53 37° 68° (ENE) 17:16:54
SWISSCUBE 30 Jul 17:02:18 17:02:49 10° 302° (WNW) 17:03:05 437.505
JAS-2 30 Jul 17:04:40 17:09:27 23° 274° (W) 17:14:29 435.910
CUSAT 1 30 Jul 17:07:27 17:10:32 20° 264° (W) 17:14:05 437.405
Cubesat XI-IV 30 Jul 17:08:26 17:11:28 16° 59° (ENE) 17:14:42 437.490
SO-50 30 Jul 17:19:00 17:22:15 17° 33° (NNE) 17:25:34 436.795
STARS 30 Jul 17:37:48 17:41:38 29° 292° (WNW) 17:45:25 437.465
PCSat 30 Jul 17:40:39 17:44:41 21° 40° (NE) 17:48:49 145.827
Cosmos 2499 30 Jul 18:01:17 18:07:47 24° 61° (ENE) 18:14:43 435.465 / 435.565
KKS-1 30 Jul 18:01:49 18:03:41 12° 299° (WNW) 18:05:21 437.445
CUTE-I 30 Jul 18:02:30 18:07:32 43° 69° (ENE) 18:12:36 437.470
AO-7 30 Jul 18:07:09 18:13:08 20° 272° (W) 18:18:44 29.400- 29.500
MOZHAYETS 4 30 Jul 18:37:43 18:41:56 34° 291° (WNW) 18:46:04
BRITE-PL 30 Jul 18:45:27 18:46:53 12° 63° (ENE) 18:48:31 437.365/2234.400
Cubesat XI-IV 30 Jul 18:45:35 18:50:57 82° 255° (WSW) 18:56:23 437.490
CUBESAT XI-V 30 Jul 18:49:43 18:53:46 30° 95° (E) 18:57:51 437.345
GONETS M04 30 Jul 18:57:43 19:06:06 52° 270° (W) 19:14:24
SO-50 30 Jul 18:58:39 19:03:39 79° 54° (NE) 19:08:31 436.795
GOMX 1 30 Jul 19:05:49 19:06:42 11° 62° (ENE) 19:07:46 467.674
PCSat 30 Jul 19:23:20 19:28:46 78° 241° (WSW) 19:34:11 145.827
HO-68 30 Jul 19:41:45 19:47:49 32° 61° (ENE) 19:54:03 435.675
CUTE-I 30 Jul 19:43:15 19:47:48 27° 267° (W) 19:52:16 437.470
VERMONT LUNAR 30 Jul 19:52:54 19:55:25 22° 160° (SSE) 19:57:58 437.305
Cosmos 2499 30 Jul 19:53:25 20:02:09 85° 263° (W) 20:11:03 435.465 / 435.565
COMPASS 1 30 Jul 20:02:15 20:04:23 14° 64° (ENE) 20:06:42 437.405
CUTE 1.7 + AOD 2 30 Jul 20:12:56 20:16:31 27° 68° (ENE) 20:20:11 437.475
SEEDS 30 Jul 20:13:10 20:16:27 22° 67° (ENE) 20:19:50 437.485
STRAND 1 30 Jul 20:15:09 20:20:15 64° 102° (ESE) 20:25:18 437.568
BRITE-PL 30 Jul 20:20:34 20:25:01 73° 258° (WSW) 20:29:14 437.365/2234.400
CANX-2 30 Jul 20:20:42 20:24:34 36° 71° (ENE) 20:28:32 2200.000
Cubesat XI-IV 30 Jul 20:30:42 20:32:02 11° 275° (W) 20:32:59 437.490
